Year,Month,Day,Hour,Minute,Value (Times are PST for temperature in C)
2012,05,18,00,00,9.10
2012,05,18,00,01,9.10
2012,05,18,00,02,9.10
2012,05,18,00,03,9.10
2012,05,18,00,04,9.10
2012,05,18,00,05,9.10
2012,05,18,00,06,9.10
2012,05,18,00,07,9.10
2012,05,18,00,08,9.10
2012,05,18,00,09,9.10
2012,05,18,00,10,9.10
2012,05,18,00,11,9.10
2012,05,18,00,12,9.10
2012,05,18,00,13,9.10
2012,05,18,00,14,9.10
2012,05,18,00,15,9.00
2012,05,18,00,16,9.00
2012,05,18,00,17,9.00
2012,05,18,00,18,9.00
2012,05,18,00,19,9.00
2012,05,18,00,20,9.00
2012,05,18,00,21,9.00
2012,05,18,00,22,9.00
2012,05,18,00,23,9.00
2012,05,18,00,24,9.00
2012,05,18,00,25,9.00
2012,05,18,00,26,8.90
2012,05,18,00,27,8.90
2012,05,18,00,28,8.90
2012,05,18,00,29,8.90
2012,05,18,00,30,8.90
2012,05,18,00,31,8.90
2012,05,18,00,32,8.90
2012,05,18,00,33,8.90
2012,05,18,00,34,8.90
2012,05,18,00,35,8.90
2012,05,18,00,36,8.90
2012,05,18,00,37,8.90
2012,05,18,00,38,8.90
2012,05,18,00,39,8.90
2012,05,18,00,40,8.90
2012,05,18,00,41,8.90
2012,05,18,00,42,8.90
2012,05,18,00,43,8.90
2012,05,18,00,44,8.90
2012,05,18,00,45,8.90
2012,05,18,00,46,8.90
2012,05,18,00,47,8.90
2012,05,18,00,48,8.90
2012,05,18,00,49,8.90
2012,05,18,00,50,8.90
2012,05,18,00,51,8.90
2012,05,18,00,52,8.90
2012,05,18,00,53,8.90
2012,05,18,00,54,8.90
2012,05,18,00,55,8.90
2012,05,18,00,56,8.90
2012,05,18,00,57,8.90
2012,05,18,00,58,8.90
2012,05,18,00,59,8.90
2012,05,18,01,00,8.90
2012,05,18,01,01,8.80
2012,05,18,01,02,8.80
2012,05,18,01,03,8.80
2012,05,18,01,04,8.80
2012,05,18,01,05,8.80
2012,05,18,01,06,8.80
2012,05,18,01,07,8.80
2012,05,18,01,08,8.80
2012,05,18,01,09,8.80
2012,05,18,01,10,8.80
2012,05,18,01,11,8.80
2012,05,18,01,12,8.80
2012,05,18,01,13,8.80
2012,05,18,01,14,8.80
2012,05,18,01,15,8.80
2012,05,18,01,16,8.70
2012,05,18,01,17,8.70
2012,05,18,01,18,8.70
2012,05,18,01,19,8.70
2012,05,18,01,20,8.70
2012,05,18,01,21,8.70
2012,05,18,01,22,8.70
2012,05,18,01,23,8.70
2012,05,18,01,24,8.70
2012,05,18,01,25,8.70
2012,05,18,01,26,8.70
2012,05,18,01,27,8.70
2012,05,18,01,28,8.70
2012,05,18,01,29,8.70
2012,05,18,01,30,8.70
2012,05,18,01,31,8.70
2012,05,18,01,32,8.70
2012,05,18,01,33,8.70
2012,05,18,01,34,8.70
2012,05,18,01,35,8.70
2012,05,18,01,36,8.70
2012,05,18,01,37,8.70
2012,05,18,01,38,8.70
2012,05,18,01,39,8.70
2012,05,18,01,40,8.70
2012,05,18,01,41,8.70
2012,05,18,01,42,8.70
2012,05,18,01,43,8.70
2012,05,18,01,44,8.70
2012,05,18,01,45,8.70
2012,05,18,01,46,8.70
2012,05,18,01,47,8.70
2012,05,18,01,48,8.70
2012,05,18,01,49,8.70
2012,05,18,01,50,8.70
2012,05,18,01,51,8.70
2012,05,18,01,52,8.70
2012,05,18,01,53,8.70
2012,05,18,01,54,8.70
2012,05,18,01,55,8.70
2012,05,18,01,56,8.70
2012,05,18,01,57,8.70
2012,05,18,01,58,8.70
2012,05,18,01,59,8.70
2012,05,18,02,00,8.70
2012,05,18,02,01,8.70
2012,05,18,02,02,8.70
2012,05,18,02,03,8.70
2012,05,18,02,04,8.70
2012,05,18,02,05,8.70
2012,05,18,02,06,8.70
2012,05,18,02,07,8.70
2012,05,18,02,08,8.70
2012,05,18,02,09,8.70
2012,05,18,02,10,8.70
2012,05,18,02,11,8.70
2012,05,18,02,12,8.70
2012,05,18,02,13,8.70
2012,05,18,02,14,8.70
2012,05,18,02,15,8.70
2012,05,18,02,16,8.70
2012,05,18,02,17,8.60
2012,05,18,02,18,8.60
2012,05,18,02,19,8.60
2012,05,18,02,20,8.60
2012,05,18,02,21,8.60
2012,05,18,02,22,8.60
2012,05,18,02,23,8.60
2012,05,18,02,24,8.50
2012,05,18,02,25,8.50
2012,05,18,02,26,8.50
2012,05,18,02,27,8.50
2012,05,18,02,28,8.50
2012,05,18,02,29,8.50
2012,05,18,02,30,8.50
2012,05,18,02,31,8.50
2012,05,18,02,32,8.50
2012,05,18,02,33,8.50
2012,05,18,02,34,8.50
2012,05,18,02,35,8.50
2012,05,18,02,36,8.50
2012,05,18,02,37,8.50
2012,05,18,02,38,8.50
2012,05,18,02,39,8.50
2012,05,18,02,40,8.50
2012,05,18,02,41,8.50
2012,05,18,02,42,8.50
2012,05,18,02,43,8.50
2012,05,18,02,44,8.60
2012,05,18,02,45,8.60
2012,05,18,02,46,8.60
2012,05,18,02,47,8.60
2012,05,18,02,48,8.60
2012,05,18,02,49,8.60
2012,05,18,02,50,8.60
2012,05,18,02,51,8.60
2012,05,18,02,52,8.50
2012,05,18,02,53,8.50
2012,05,18,02,54,8.60
2012,05,18,02,55,8.60
2012,05,18,02,56,8.60
2012,05,18,02,57,8.60
2012,05,18,02,58,8.60
2012,05,18,02,59,8.60
2012,05,18,03,00,8.60
2012,05,18,03,01,8.60
2012,05,18,03,02,8.60
2012,05,18,03,03,8.60
2012,05,18,03,04,8.60
2012,05,18,03,05,8.60
2012,05,18,03,06,8.60
2012,05,18,03,07,8.60
2012,05,18,03,08,8.60
2012,05,18,03,09,8.60
2012,05,18,03,10,8.50
2012,05,18,03,11,8.50
2012,05,18,03,12,8.50
2012,05,18,03,13,8.50
2012,05,18,03,14,8.50
2012,05,18,03,15,8.50
2012,05,18,03,16,8.50
2012,05,18,03,17,8.50
2012,05,18,03,18,8.50
2012,05,18,03,19,8.50
2012,05,18,03,20,8.50
2012,05,18,03,21,8.40
2012,05,18,03,22,8.40
2012,05,18,03,23,8.40
2012,05,18,03,24,8.40
2012,05,18,03,25,8.40
2012,05,18,03,26,8.40
2012,05,18,03,27,8.40
2012,05,18,03,28,8.40
2012,05,18,03,29,8.30
2012,05,18,03,30,8.30
2012,05,18,03,31,8.30
2012,05,18,03,32,8.30
2012,05,18,03,33,8.30
2012,05,18,03,34,8.30
2012,05,18,03,35,8.30
2012,05,18,03,36,8.30
2012,05,18,03,37,8.20
2012,05,18,03,38,8.20
2012,05,18,03,39,8.20
2012,05,18,03,40,8.20
2012,05,18,03,41,8.20
2012,05,18,03,42,8.20
2012,05,18,03,43,8.20
2012,05,18,03,44,8.20
2012,05,18,03,45,8.20
2012,05,18,03,46,8.20
2012,05,18,03,47,8.10
2012,05,18,03,48,8.10
2012,05,18,03,49,8.00
2012,05,18,03,50,8.00
2012,05,18,03,51,7.90
2012,05,18,03,52,7.90
2012,05,18,03,53,7.80
2012,05,18,03,54,7.80
2012,05,18,03,55,7.80
2012,05,18,03,56,7.80
2012,05,18,03,57,7.70
2012,05,18,03,58,7.70
2012,05,18,03,59,7.70
2012,05,18,04,00,7.60
2012,05,18,04,01,7.60
2012,05,18,04,02,7.60
2012,05,18,04,03,7.60
2012,05,18,04,04,7.60
2012,05,18,04,05,7.60
2012,05,18,04,06,7.60
2012,05,18,04,07,7.60
2012,05,18,04,08,7.50
2012,05,18,04,09,7.50
2012,05,18,04,10,7.50
2012,05,18,04,11,7.50
2012,05,18,04,12,7.40
2012,05,18,04,13,7.40
2012,05,18,04,14,7.40
2012,05,18,04,15,7.40
2012,05,18,04,16,7.30
2012,05,18,04,17,7.30
2012,05,18,04,18,7.30
2012,05,18,04,19,7.30
2012,05,18,04,20,7.30
2012,05,18,04,21,7.20
2012,05,18,04,22,7.20
2012,05,18,04,23,7.10
2012,05,18,04,24,7.10
2012,05,18,04,25,7.10
2012,05,18,04,26,7.10
2012,05,18,04,27,7.00
2012,05,18,04,28,7.00
2012,05,18,04,29,6.90
2012,05,18,04,30,6.90
2012,05,18,04,31,6.80
2012,05,18,04,32,6.80
2012,05,18,04,33,6.80
2012,05,18,04,34,6.80
2012,05,18,04,35,6.70
2012,05,18,04,36,6.70
2012,05,18,04,37,6.60
2012,05,18,04,38,6.60
2012,05,18,04,39,6.60
2012,05,18,04,40,6.60
2012,05,18,04,41,6.60
2012,05,18,04,42,6.60
2012,05,18,04,43,6.60
2012,05,18,04,44,6.60
2012,05,18,04,45,6.60
2012,05,18,04,46,6.60
2012,05,18,04,47,6.60
2012,05,18,04,48,6.60
2012,05,18,04,49,6.60
2012,05,18,04,50,6.60
2012,05,18,04,51,6.60
2012,05,18,04,52,6.40
2012,05,18,04,53,6.30
2012,05,18,04,54,6.20
2012,05,18,04,55,6.10
2012,05,18,04,56,6.00
2012,05,18,04,57,5.90
2012,05,18,04,58,5.90
2012,05,18,04,59,5.80
2012,05,18,05,00,5.80
2012,05,18,05,01,5.70
2012,05,18,05,02,5.70
2012,05,18,05,03,5.70
2012,05,18,05,04,5.70
2012,05,18,05,05,5.70
2012,05,18,05,06,5.70
2012,05,18,05,07,5.70
2012,05,18,05,08,5.70
2012,05,18,05,09,5.70
2012,05,18,05,10,5.70
2012,05,18,05,11,5.70
2012,05,18,05,12,5.70
2012,05,18,05,13,5.60
2012,05,18,05,14,5.50
2012,05,18,05,15,5.50
2012,05,18,05,16,5.40
2012,05,18,05,17,5.40
2012,05,18,05,18,5.30
2012,05,18,05,19,5.30
2012,05,18,05,20,5.20
2012,05,18,05,21,5.20
2012,05,18,05,22,5.10
2012,05,18,05,23,5.10
2012,05,18,05,24,5.10
2012,05,18,05,25,5.10
2012,05,18,05,26,5.10
2012,05,18,05,27,5.10
2012,05,18,05,28,5.00
2012,05,18,05,29,4.90
2012,05,18,05,30,4.90
2012,05,18,05,31,4.90
2012,05,18,05,32,4.90
2012,05,18,05,33,4.90
2012,05,18,05,34,4.90
2012,05,18,05,35,4.90
2012,05,18,05,36,4.90
2012,05,18,05,37,4.90
2012,05,18,05,38,4.90
2012,05,18,05,39,4.90
2012,05,18,05,40,4.90
2012,05,18,05,41,4.80
2012,05,18,05,42,4.80
2012,05,18,05,43,4.80
2012,05,18,05,44,4.70
2012,05,18,05,45,4.70
2012,05,18,05,46,4.70
2012,05,18,05,47,4.70
2012,05,18,05,48,4.70
2012,05,18,05,49,4.60
2012,05,18,05,50,4.60
2012,05,18,05,51,4.60
2012,05,18,05,52,4.60
2012,05,18,05,53,4.60
2012,05,18,05,54,4.60
2012,05,18,05,55,4.60
2012,05,18,05,56,4.60
2012,05,18,05,57,4.70
2012,05,18,05,58,4.70
2012,05,18,05,59,4.70
2012,05,18,06,00,4.70
2012,05,18,06,01,4.70
2012,05,18,06,02,4.70
2012,05,18,06,03,4.70
2012,05,18,06,04,4.80
2012,05,18,06,05,4.80
2012,05,18,06,06,4.80
2012,05,18,06,07,4.80
2012,05,18,06,08,4.80
2012,05,18,06,09,4.80
2012,05,18,06,10,4.80
2012,05,18,06,11,4.80
2012,05,18,06,12,4.80
2012,05,18,06,13,4.80
2012,05,18,06,14,4.90
2012,05,18,06,15,4.90
2012,05,18,06,16,4.90
2012,05,18,06,17,4.90
2012,05,18,06,18,4.90
2012,05,18,06,19,5.00
2012,05,18,06,20,5.10
2012,05,18,06,21,5.10
2012,05,18,06,22,5.10
2012,05,18,06,23,5.20
2012,05,18,06,24,5.20
2012,05,18,06,25,5.30
2012,05,18,06,26,5.30
2012,05,18,06,27,5.30
2012,05,18,06,28,5.40
2012,05,18,06,29,5.40
2012,05,18,06,30,5.50
2012,05,18,06,31,5.50
2012,05,18,06,32,5.50
2012,05,18,06,33,5.50
2012,05,18,06,34,5.50
2012,05,18,06,35,5.60
2012,05,18,06,36,5.60
2012,05,18,06,37,5.70
2012,05,18,06,38,5.80
2012,05,18,06,39,6.00
2012,05,18,06,40,6.10
2012,05,18,06,41,6.20
2012,05,18,06,42,6.30
2012,05,18,06,43,6.40
2012,05,18,06,44,6.40
2012,05,18,06,45,6.60
2012,05,18,06,46,6.70
2012,05,18,06,47,6.80
2012,05,18,06,48,6.80
2012,05,18,06,49,6.90
2012,05,18,06,50,6.90
2012,05,18,06,51,7.00
2012,05,18,06,52,7.00
2012,05,18,06,53,7.10
2012,05,18,06,54,7.20
2012,05,18,06,55,7.20
2012,05,18,06,56,7.30
2012,05,18,06,57,7.30
2012,05,18,06,58,7.30
2012,05,18,06,59,7.30
2012,05,18,07,00,7.30
2012,05,18,07,01,7.40
2012,05,18,07,02,7.40
2012,05,18,07,03,7.40
2012,05,18,07,04,7.50
2012,05,18,07,05,7.50
2012,05,18,07,06,7.60
2012,05,18,07,07,7.60
2012,05,18,07,08,7.70
2012,05,18,07,09,7.70
2012,05,18,07,10,7.70
2012,05,18,07,11,7.80
2012,05,18,07,12,7.80
2012,05,18,07,13,7.80
2012,05,18,07,14,7.80
2012,05,18,07,15,7.80
2012,05,18,07,16,7.80
2012,05,18,07,17,7.80
2012,05,18,07,18,7.80
2012,05,18,07,19,7.80
2012,05,18,07,20,7.80
2012,05,18,07,21,7.80
2012,05,18,07,22,7.80
2012,05,18,07,23,7.80
2012,05,18,07,24,7.80
2012,05,18,07,25,7.80
2012,05,18,07,26,7.90
2012,05,18,07,27,7.90
2012,05,18,07,28,7.90
2012,05,18,07,29,7.90
2012,05,18,07,30,8.00
2012,05,18,07,31,8.00
2012,05,18,07,32,8.00
2012,05,18,07,33,8.00
2012,05,18,07,34,8.10
2012,05,18,07,35,8.10
2012,05,18,07,36,8.20
2012,05,18,07,37,8.20
2012,05,18,07,38,8.30
2012,05,18,07,39,8.30
2012,05,18,07,40,8.30
2012,05,18,07,41,8.30
2012,05,18,07,42,8.40
2012,05,18,07,43,8.50
2012,05,18,07,44,8.50
2012,05,18,07,45,8.60
2012,05,18,07,46,8.60
2012,05,18,07,47,8.70
2012,05,18,07,48,8.70
2012,05,18,07,49,8.70
2012,05,18,07,50,8.70
2012,05,18,07,51,8.70
2012,05,18,07,52,8.80
2012,05,18,07,53,8.80
2012,05,18,07,54,8.90
2012,05,18,07,55,8.90
2012,05,18,07,56,9.00
2012,05,18,07,57,9.00
2012,05,18,07,58,9.00
2012,05,18,07,59,9.00
2012,05,18,08,00,9.00
2012,05,18,08,01,9.00
2012,05,18,08,02,9.00
2012,05,18,08,03,9.10
2012,05,18,08,04,9.10
2012,05,18,08,05,9.20
2012,05,18,08,06,9.20
2012,05,18,08,07,9.20
2012,05,18,08,08,9.20
2012,05,18,08,09,9.30
2012,05,18,08,10,9.30
2012,05,18,08,11,9.30
2012,05,18,08,12,9.40
2012,05,18,08,13,9.40
2012,05,18,08,14,9.50
2012,05,18,08,15,9.50
2012,05,18,08,16,9.50
2012,05,18,08,17,9.50
2012,05,18,08,18,9.60
2012,05,18,08,19,9.60
2012,05,18,08,20,9.60
2012,05,18,08,21,9.60
2012,05,18,08,22,9.70
2012,05,18,08,23,9.80
2012,05,18,08,24,9.80
2012,05,18,08,25,9.90
2012,05,18,08,26,9.90
2012,05,18,08,27,9.90
2012,05,18,08,28,9.90
2012,05,18,08,29,9.90
2012,05,18,08,30,10.00
2012,05,18,08,31,10.10
2012,05,18,08,32,10.10
2012,05,18,08,33,10.10
2012,05,18,08,34,10.10
2012,05,18,08,35,10.10
2012,05,18,08,36,10.10
2012,05,18,08,37,10.20
2012,05,18,08,38,10.20
2012,05,18,08,39,10.20
2012,05,18,08,40,10.20
2012,05,18,08,41,10.20
2012,05,18,08,42,10.30
2012,05,18,08,43,10.30
2012,05,18,08,44,10.30
2012,05,18,08,45,10.30
2012,05,18,08,46,10.30
2012,05,18,08,47,10.40
2012,05,18,08,48,10.40
2012,05,18,08,49,10.40
2012,05,18,08,50,10.40
2012,05,18,08,51,10.40
2012,05,18,08,52,10.50
2012,05,18,08,53,10.60
2012,05,18,08,54,10.60
2012,05,18,08,55,10.60
2012,05,18,08,56,10.60
2012,05,18,08,57,10.60
2012,05,18,08,58,10.60
2012,05,18,08,59,10.60
2012,05,18,09,00,10.50
2012,05,18,09,01,10.40
2012,05,18,09,02,10.40
2012,05,18,09,03,10.50
2012,05,18,09,04,10.60
2012,05,18,09,05,10.60
2012,05,18,09,06,10.60
2012,05,18,09,07,10.60
2012,05,18,09,08,10.60
2012,05,18,09,09,10.60
2012,05,18,09,10,10.60
2012,05,18,09,11,10.60
2012,05,18,09,12,10.70
2012,05,18,09,13,10.70
2012,05,18,09,14,10.70
2012,05,18,09,15,10.70
2012,05,18,09,16,10.70
2012,05,18,09,17,10.70
2012,05,18,09,18,10.70
2012,05,18,09,19,10.70
2012,05,18,09,20,10.70
2012,05,18,09,21,10.70
2012,05,18,09,22,10.80
2012,05,18,09,23,10.70
2012,05,18,09,24,10.70
2012,05,18,09,25,10.70
2012,05,18,09,26,10.60
2012,05,18,09,27,10.60
2012,05,18,09,28,10.60
2012,05,18,09,29,10.60
2012,05,18,09,30,10.60
2012,05,18,09,31,10.60
2012,05,18,09,32,10.60
2012,05,18,09,33,10.60
2012,05,18,09,34,10.60
2012,05,18,09,35,10.60
2012,05,18,09,36,10.70
2012,05,18,09,37,10.80
2012,05,18,09,38,10.80
2012,05,18,09,39,10.90
2012,05,18,09,40,10.90
2012,05,18,09,41,10.90
2012,05,18,09,42,10.90
2012,05,18,09,43,11.00
2012,05,18,09,44,11.10
2012,05,18,09,45,11.10
2012,05,18,09,46,11.00
2012,05,18,09,47,10.90
2012,05,18,09,48,10.90
2012,05,18,09,49,11.00
2012,05,18,09,50,11.10
2012,05,18,09,51,11.10
2012,05,18,09,52,11.20
2012,05,18,09,53,11.20
2012,05,18,09,54,11.20
2012,05,18,09,55,11.10
2012,05,18,09,56,11.10
2012,05,18,09,57,11.10
2012,05,18,09,58,11.10
2012,05,18,09,59,11.10
2012,05,18,10,00,11.10
2012,05,18,10,01,11.10
2012,05,18,10,02,11.10
2012,05,18,10,03,11.30
2012,05,18,10,04,11.30
2012,05,18,10,05,11.20
2012,05,18,10,06,11.20
2012,05,18,10,07,11.20
2012,05,18,10,08,11.10
2012,05,18,10,09,11.10
2012,05,18,10,10,11.10
2012,05,18,10,11,11.10
2012,05,18,10,12,11.10
2012,05,18,10,13,11.10
2012,05,18,10,14,11.10
2012,05,18,10,15,11.20
2012,05,18,10,16,11.20
2012,05,18,10,17,11.20
2012,05,18,10,18,11.20
2012,05,18,10,19,11.20
2012,05,18,10,20,11.30
2012,05,18,10,21,11.30
2012,05,18,10,22,11.30
2012,05,18,10,23,11.20
2012,05,18,10,24,11.20
2012,05,18,10,25,11.20
2012,05,18,10,26,11.20
2012,05,18,10,27,11.30
2012,05,18,10,28,11.30
2012,05,18,10,29,11.40
2012,05,18,10,30,11.30
2012,05,18,10,31,11.30
2012,05,18,10,32,11.20
2012,05,18,10,33,11.20
2012,05,18,10,34,11.20
2012,05,18,10,35,11.30
2012,05,18,10,36,11.30
2012,05,18,10,37,11.30
2012,05,18,10,38,11.20
2012,05,18,10,39,11.30
2012,05,18,10,40,11.40
2012,05,18,10,41,11.40
2012,05,18,10,42,11.40
2012,05,18,10,43,11.40
2012,05,18,10,44,11.40
2012,05,18,10,45,11.40
2012,05,18,10,46,11.40
2012,05,18,10,47,11.40
2012,05,18,10,48,11.40
2012,05,18,10,49,11.60
2012,05,18,10,50,11.60
2012,05,18,10,51,11.70
2012,05,18,10,52,11.70
2012,05,18,10,53,11.80
2012,05,18,10,54,11.70
2012,05,18,10,55,11.80
2012,05,18,10,56,11.80
2012,05,18,10,57,11.90
2012,05,18,10,58,12.00
2012,05,18,10,59,12.00
2012,05,18,11,00,11.90
2012,05,18,11,01,11.80
2012,05,18,11,02,11.80
2012,05,18,11,03,11.60
2012,05,18,11,04,11.60
2012,05,18,11,05,11.50
2012,05,18,11,06,11.50
2012,05,18,11,07,11.60
2012,05,18,11,08,11.60
2012,05,18,11,09,11.50
2012,05,18,11,10,11.40
2012,05,18,11,11,11.40
2012,05,18,11,12,11.40
2012,05,18,11,13,11.40
2012,05,18,11,14,11.40
2012,05,18,11,15,11.40
2012,05,18,11,16,11.40
2012,05,18,11,17,11.40
2012,05,18,11,18,11.40
2012,05,18,11,19,11.60
2012,05,18,11,20,11.50
2012,05,18,11,21,11.40
2012,05,18,11,22,11.40
2012,05,18,11,23,11.40
2012,05,18,11,24,11.50
2012,05,18,11,25,11.50
2012,05,18,11,26,11.40
2012,05,18,11,27,11.60
2012,05,18,11,28,11.60
2012,05,18,11,29,11.70
2012,05,18,11,30,11.80
2012,05,18,11,31,11.80
2012,05,18,11,32,11.80
2012,05,18,11,33,11.80
2012,05,18,11,34,11.80
2012,05,18,11,35,11.70
2012,05,18,11,36,11.60
2012,05,18,11,37,11.60
2012,05,18,11,38,11.60
2012,05,18,11,39,11.60
2012,05,18,11,40,11.60
2012,05,18,11,41,11.60
2012,05,18,11,42,11.60
2012,05,18,11,43,11.60
2012,05,18,11,44,11.80
2012,05,18,11,45,11.80
2012,05,18,11,46,11.90
2012,05,18,11,47,11.90
2012,05,18,11,48,12.00
2012,05,18,11,49,12.10
2012,05,18,11,50,12.10
2012,05,18,11,51,12.20
2012,05,18,11,52,12.20
2012,05,18,11,53,12.10
2012,05,18,11,54,12.10
2012,05,18,11,55,12.20
2012,05,18,11,56,12.20
2012,05,18,11,57,12.20
2012,05,18,11,58,12.20
2012,05,18,11,59,12.10
2012,05,18,12,00,12.00
2012,05,18,12,01,12.10
2012,05,18,12,02,12.10
2012,05,18,12,03,12.00
2012,05,18,12,04,11.90
2012,05,18,12,05,11.80
2012,05,18,12,06,11.80
2012,05,18,12,07,11.80
2012,05,18,12,08,11.80
2012,05,18,12,09,11.80
2012,05,18,12,10,11.90
2012,05,18,12,11,12.00
2012,05,18,12,12,12.00
2012,05,18,12,13,12.00
2012,05,18,12,14,12.00
2012,05,18,12,15,11.90
2012,05,18,12,16,12.00
2012,05,18,12,17,12.00
2012,05,18,12,18,11.90
2012,05,18,12,19,12.00
2012,05,18,12,20,12.10
2012,05,18,12,21,12.20
2012,05,18,12,22,12.10
2012,05,18,12,23,12.20
2012,05,18,12,24,12.20
2012,05,18,12,25,12.20
2012,05,18,12,26,12.30
2012,05,18,12,27,12.40
2012,05,18,12,28,12.50
2012,05,18,12,29,12.60
2012,05,18,12,30,12.80
2012,05,18,12,31,12.70
2012,05,18,12,32,12.60
2012,05,18,12,33,12.70
2012,05,18,12,34,12.70
2012,05,18,12,35,12.70
2012,05,18,12,36,12.60
2012,05,18,12,37,12.60
2012,05,18,12,38,12.50
2012,05,18,12,39,12.30
2012,05,18,12,40,12.20
2012,05,18,12,41,12.10
2012,05,18,12,42,12.10
2012,05,18,12,43,12.20
2012,05,18,12,44,12.30
2012,05,18,12,45,12.30
2012,05,18,12,46,12.10
2012,05,18,12,47,12.10
2012,05,18,12,48,12.00
2012,05,18,12,49,11.90
2012,05,18,12,50,12.00
2012,05,18,12,51,12.10
2012,05,18,12,52,12.30
2012,05,18,12,53,12.50
2012,05,18,12,54,12.70
2012,05,18,12,55,12.80
2012,05,18,12,56,12.80
2012,05,18,12,57,12.70
2012,05,18,12,58,12.50
2012,05,18,12,59,12.40
2012,05,18,13,00,12.40
2012,05,18,13,01,12.30
2012,05,18,13,02,12.30
2012,05,18,13,03,12.30
2012,05,18,13,04,12.30
2012,05,18,13,05,12.30
2012,05,18,13,06,12.40
2012,05,18,13,07,12.40
2012,05,18,13,08,12.30
2012,05,18,13,09,12.30
2012,05,18,13,10,12.40
2012,05,18,13,11,12.40
2012,05,18,13,12,12.60
2012,05,18,13,13,12.70
2012,05,18,13,14,12.80
2012,05,18,13,15,12.70
2012,05,18,13,16,12.60
2012,05,18,13,17,12.50
2012,05,18,13,18,12.40
2012,05,18,13,19,12.40
2012,05,18,13,20,12.40
2012,05,18,13,21,12.50
2012,05,18,13,22,12.40
2012,05,18,13,23,12.30
2012,05,18,13,24,12.30
2012,05,18,13,25,12.20
2012,05,18,13,26,12.20
2012,05,18,13,27,12.30
2012,05,18,13,28,12.40
2012,05,18,13,29,12.50
2012,05,18,13,30,12.50
2012,05,18,13,31,12.70
2012,05,18,13,32,12.60
2012,05,18,13,33,12.40
2012,05,18,13,34,12.40
2012,05,18,13,35,12.50
2012,05,18,13,36,12.60
2012,05,18,13,37,12.60
2012,05,18,13,38,12.60
2012,05,18,13,39,12.60
2012,05,18,13,40,12.60
2012,05,18,13,41,12.60
2012,05,18,13,42,12.50
2012,05,18,13,43,12.30
2012,05,18,13,44,12.30
2012,05,18,13,45,12.30
2012,05,18,13,46,12.30
2012,05,18,13,47,12.10
2012,05,18,13,48,12.10
2012,05,18,13,49,12.10
2012,05,18,13,50,12.00
2012,05,18,13,51,12.10
2012,05,18,13,52,12.20
2012,05,18,13,53,12.30
2012,05,18,13,54,12.30
2012,05,18,13,55,12.40
2012,05,18,13,56,12.40
2012,05,18,13,57,12.50
2012,05,18,13,58,12.50
2012,05,18,13,59,12.50
2012,05,18,14,00,12.60
2012,05,18,14,01,12.80
2012,05,18,14,02,12.90
2012,05,18,14,03,12.90
2012,05,18,14,04,12.70
2012,05,18,14,05,12.50
2012,05,18,14,06,12.50
2012,05,18,14,07,12.60
2012,05,18,14,08,12.70
2012,05,18,14,09,12.70
2012,05,18,14,10,12.60
2012,05,18,14,11,12.70
2012,05,18,14,12,12.60
2012,05,18,14,13,12.50
2012,05,18,14,14,12.40
2012,05,18,14,15,12.50
2012,05,18,14,16,12.70
2012,05,18,14,17,12.70
2012,05,18,14,18,12.60
2012,05,18,14,19,12.40
2012,05,18,14,20,12.60
2012,05,18,14,21,12.60
2012,05,18,14,22,12.60
2012,05,18,14,23,12.50
2012,05,18,14,24,12.30
2012,05,18,14,25,12.20
2012,05,18,14,26,12.10
2012,05,18,14,27,12.20
2012,05,18,14,28,12.30
2012,05,18,14,29,12.20
2012,05,18,14,30,12.20
2012,05,18,14,31,12.20
2012,05,18,14,32,12.10
2012,05,18,14,33,12.10
2012,05,18,14,34,12.10
2012,05,18,14,35,12.00
2012,05,18,14,36,12.00
2012,05,18,14,37,12.20
2012,05,18,14,38,12.10
2012,05,18,14,39,12.00
2012,05,18,14,40,11.90
2012,05,18,14,41,11.90
2012,05,18,14,42,11.80
2012,05,18,14,43,11.70
2012,05,18,14,44,11.60
2012,05,18,14,45,11.60
2012,05,18,14,46,11.70
2012,05,18,14,47,11.80
2012,05,18,14,48,11.90
2012,05,18,14,49,11.90
2012,05,18,14,50,12.00
2012,05,18,14,51,11.90
2012,05,18,14,52,12.00
2012,05,18,14,53,11.90
2012,05,18,14,54,11.90
2012,05,18,14,55,11.80
2012,05,18,14,56,11.80
2012,05,18,14,57,11.90
2012,05,18,14,58,12.00
2012,05,18,14,59,12.10
2012,05,18,15,00,12.30
2012,05,18,15,01,12.30
2012,05,18,15,02,12.30
2012,05,18,15,03,12.30
2012,05,18,15,04,12.30
2012,05,18,15,05,12.30
2012,05,18,15,06,12.20
2012,05,18,15,07,12.20
2012,05,18,15,08,12.10
2012,05,18,15,09,12.00
2012,05,18,15,10,12.10
2012,05,18,15,11,12.10
2012,05,18,15,12,12.00
2012,05,18,15,13,11.90
2012,05,18,15,14,11.80
2012,05,18,15,15,11.60
2012,05,18,15,16,11.60
2012,05,18,15,17,11.60
2012,05,18,15,18,11.50
2012,05,18,15,19,11.40
2012,05,18,15,20,11.30
2012,05,18,15,21,11.30
2012,05,18,15,22,11.30
2012,05,18,15,23,11.30
2012,05,18,15,24,11.40
2012,05,18,15,25,11.40
2012,05,18,15,26,11.40
2012,05,18,15,27,11.40
2012,05,18,15,28,11.50
2012,05,18,15,29,11.60
2012,05,18,15,30,11.70
2012,05,18,15,31,11.80
2012,05,18,15,32,11.80
2012,05,18,15,33,11.80
2012,05,18,15,34,11.80
2012,05,18,15,35,11.70
2012,05,18,15,36,11.60
2012,05,18,15,37,11.60
2012,05,18,15,38,11.60
2012,05,18,15,39,11.50
2012,05,18,15,40,11.40
2012,05,18,15,41,11.40
2012,05,18,15,42,11.50
2012,05,18,15,43,11.60
2012,05,18,15,44,11.60
2012,05,18,15,45,11.60
2012,05,18,15,46,11.60
2012,05,18,15,47,11.70
2012,05,18,15,48,11.60
2012,05,18,15,49,11.60
2012,05,18,15,50,11.60
2012,05,18,15,51,11.50
2012,05,18,15,52,11.40
2012,05,18,15,53,11.40
2012,05,18,15,54,11.30
2012,05,18,15,55,11.30
2012,05,18,15,56,11.40
2012,05,18,15,57,11.50
2012,05,18,15,58,11.60
2012,05,18,15,59,11.60
2012,05,18,16,00,11.60
2012,05,18,16,01,11.60
2012,05,18,16,02,11.60
2012,05,18,16,03,11.60
2012,05,18,16,04,11.60
2012,05,18,16,05,11.80
2012,05,18,16,06,11.80
2012,05,18,16,07,11.80
2012,05,18,16,08,11.90
2012,05,18,16,09,12.00
2012,05,18,16,10,12.00
2012,05,18,16,11,11.90
2012,05,18,16,12,11.70
2012,05,18,16,13,11.70
2012,05,18,16,14,11.60
2012,05,18,16,15,11.60
2012,05,18,16,16,11.50
2012,05,18,16,17,11.40
2012,05,18,16,18,11.40
2012,05,18,16,19,11.40
2012,05,18,16,20,11.40
2012,05,18,16,21,11.40
2012,05,18,16,22,11.40
2012,05,18,16,23,11.40
2012,05,18,16,24,11.30
2012,05,18,16,25,11.30
2012,05,18,16,26,11.40
2012,05,18,16,27,11.50
2012,05,18,16,28,11.60
2012,05,18,16,29,11.60
2012,05,18,16,30,11.70
2012,05,18,16,31,11.80
2012,05,18,16,32,11.80
2012,05,18,16,33,11.80
2012,05,18,16,34,11.80
2012,05,18,16,35,11.80
2012,05,18,16,36,11.80
2012,05,18,16,37,11.80
2012,05,18,16,38,11.80
2012,05,18,16,39,11.80
2012,05,18,16,40,11.80
2012,05,18,16,41,11.80
2012,05,18,16,42,11.80
2012,05,18,16,43,11.80
2012,05,18,16,44,12.00
2012,05,18,16,45,12.00
2012,05,18,16,46,12.10
2012,05,18,16,47,12.10
2012,05,18,16,48,12.10
2012,05,18,16,49,12.00
2012,05,18,16,50,12.00
2012,05,18,16,51,12.10
2012,05,18,16,52,12.10
2012,05,18,16,53,12.00
2012,05,18,16,54,11.90
2012,05,18,16,55,12.00
2012,05,18,16,56,12.00
2012,05,18,16,57,12.10
2012,05,18,16,58,12.20
2012,05,18,16,59,12.20
2012,05,18,17,00,12.20
2012,05,18,17,01,12.30
2012,05,18,17,02,12.30
2012,05,18,17,03,12.30
2012,05,18,17,04,12.30
2012,05,18,17,05,12.30
2012,05,18,17,06,12.30
2012,05,18,17,07,12.30
2012,05,18,17,08,12.30
2012,05,18,17,09,12.20
2012,05,18,17,10,12.10
2012,05,18,17,11,12.00
2012,05,18,17,12,12.00
2012,05,18,17,13,12.00
2012,05,18,17,14,12.00
2012,05,18,17,15,12.00
2012,05,18,17,16,12.10
2012,05,18,17,17,12.10
2012,05,18,17,18,12.00
2012,05,18,17,19,12.10
2012,05,18,17,20,12.10
2012,05,18,17,21,12.10
2012,05,18,17,22,12.20
2012,05,18,17,23,12.10
2012,05,18,17,24,12.10
2012,05,18,17,25,12.20
2012,05,18,17,26,12.30
2012,05,18,17,27,12.30
2012,05,18,17,28,12.30
2012,05,18,17,29,12.30
2012,05,18,17,30,12.30
2012,05,18,17,31,12.30
2012,05,18,17,32,12.40
2012,05,18,17,33,12.40
2012,05,18,17,34,12.40
2012,05,18,17,35,12.30
2012,05,18,17,36,12.30
2012,05,18,17,37,12.30
2012,05,18,17,38,12.30
2012,05,18,17,39,12.30
2012,05,18,17,40,12.30
2012,05,18,17,41,12.50